TimeIST,TemperatureF,Dew PointF,Humidity,Sea Level PressureIn,VisibilityMPH,Wind Direction,Wind SpeedMPH,Gust SpeedMPH,PrecipitationIn,Events,Conditions,WindDirDegrees,DateUTC
12:00 AM,78.8,66.2,65,29.71,1.2,Calm,Calm,-,N/A,,Haze,0,2012-10-03 18:30:00
12:30 AM,78.8,66.2,65,29.68,1.2,Calm,Calm,-,N/A,,Haze,0,2012-10-03 19:00:00
1:00 AM,77.0,66.2,69,29.68,1.2,Calm,Calm,-,N/A,,Haze,0,2012-10-03 19:30:00
1:30 AM,77.0,68.0,74,29.68,1.2,Calm,Calm,-,N/A,,Haze,0,2012-10-03 20:00:00
2:00 AM,75.2,66.2,73,29.68,1.1,Calm,Calm,-,N/A,,Haze,0,2012-10-03 20:30:00
2:30 AM,75.2,68.0,78,29.65,1.1,Calm,Calm,-,N/A,,Mist,0,2012-10-03 21:00:00
3:00 AM,73.4,66.2,78,29.65,1.1,SW,4.6,-,N/A,,Mist,220,2012-10-03 21:30:00
3:30 AM,71.6,64.4,78,29.65,1.1,SW,4.6,-,N/A,,Mist,230,2012-10-03 22:00:00
4:00 AM,71.6,64.4,78,29.65,1.1,WNW,4.6,-,N/A,,Mist,290,2012-10-03 22:30:00
4:30 AM,71.6,62.6,73,29.65,1.1,WSW,3.5,-,N/A,,Mist,240,2012-10-03 23:00:00
5:00 AM,71.6,62.6,73,29.65,1.2,WSW,3.5,-,N/A,,Mist,250,2012-10-03 23:30:00
5:30 AM,71.6,62.6,73,29.68,1.4,WSW,3.5,-,N/A,,Mist,250,2012-10-04 00:00:00
6:00 AM,71.6,62.6,73,29.68,1.4,WSW,3.5,-,N/A,,Mist,250,2012-10-04 00:30:00
6:30 AM,71.6,62.6,73,29.68,1.4,Calm,Calm,-,N/A,,Mist,0,2012-10-04 01:00:00
7:00 AM,73.4,60.8,65,29.68,1.4,Calm,Calm,-,N/A,,Mist,0,2012-10-04 01:30:00
8:00 AM,75.2,59.0,57,29.71,1.6,WSW,3.5,-,N/A,,Haze,250,2012-10-04 02:30:00
8:30 AM,77.0,57.2,50,29.71,1.6,West,4.6,-,N/A,,Haze,260,2012-10-04 03:00:00
9:00 AM,78.8,57.2,47,29.71,1.7,West,4.6,-,N/A,,Haze,260,2012-10-04 03:30:00
9:30 AM,80.6,59.0,48,29.71,1.7,West,4.6,-,N/A,,Haze,260,2012-10-04 04:00:00
11:00 AM,89.6,59.0,36,29.71,2.2,West,5.8,-,N/A,,Haze,280,2012-10-04 05:30:00
11:30 AM,91.4,59.0,34,29.71,2.2,WNW,5.8,-,N/A,,Haze,300,2012-10-04 06:00:00
12:00 PM,93.2,59.0,32,29.71,2.2,West,4.6,-,N/A,,Haze,270,2012-10-04 06:30:00
12:30 PM,93.2,59.0,32,29.68,2.2,West,5.8,-,N/A,,Haze,280,2012-10-04 07:00:00
1:00 PM,95.0,59.0,30,29.68,2.2,WNW,8.1,-,N/A,,Haze,290,2012-10-04 07:30:00
1:30 PM,95.0,59.0,30,29.68,2.2,WNW,9.2,-,N/A,,Haze,290,2012-10-04 08:00:00
2:00 PM,95.0,55.4,26,29.65,2.2,NW,11.5,-,N/A,,Haze,310,2012-10-04 08:30:00
2:30 PM,93.2,53.6,26,29.65,2.5,West,13.8,-,N/A,,Haze,280,2012-10-04 09:00:00
3:30 PM,93.2,53.6,26,29.65,2.5,West,13.8,-,N/A,,Haze,280,2012-10-04 10:00:00
4:00 PM,93.2,55.4,28,29.65,2.5,WNW,11.5,-,N/A,,Haze,290,2012-10-04 10:30:00
4:30 PM,93.2,55.4,28,29.62,2.2,NW,11.5,-,N/A,,Haze,310,2012-10-04 11:00:00
5:00 PM,93.2,55.4,28,29.65,2.2,NW,10.4,-,N/A,,Haze,310,2012-10-04 11:30:00
5:30 PM,93.2,55.4,28,29.65,2.2,NW,9.2,-,N/A,,Haze,310,2012-10-04 12:00:00
6:00 PM,91.4,57.2,31,29.65,2.2,NW,8.1,-,N/A,,Haze,310,2012-10-04 12:30:00
6:30 PM,89.6,57.2,33,29.65,-9999.0,West,5.8,-,N/A,,Haze,280,2012-10-04 13:00:00
7:00 PM,87.8,57.2,35,29.65,-9999.0,West,5.8,-,N/A,,Haze,280,2012-10-04 13:30:00
7:30 PM,86.0,59.0,40,29.65,-9999.0,Calm,Calm,-,N/A,,Haze,0,2012-10-04 14:00:00
8:00 PM,86.0,60.8,43,29.68,-9999.0,West,3.5,-,N/A,,Haze,280,2012-10-04 14:30:00
8:30 PM,84.2,60.8,45,29.68,-9999.0,WSW,3.5,-,N/A,,Haze,240,2012-10-04 15:00:00
9:30 PM,82.4,60.8,48,29.68,1.9,Calm,Calm,-,N/A,,Haze,0,2012-10-04 16:00:00
10:00 PM,80.6,60.8,51,29.71,1.6,Calm,Calm,-,N/A,,Haze,0,2012-10-04 16:30:00
10:30 PM,80.6,62.6,54,29.71,1.6,Calm,Calm,-,N/A,,Haze,0,2012-10-04 17:00:00
11:00 PM,78.8,62.6,57,29.71,1.6,Calm,Calm,-,N/A,,Haze,0,2012-10-04 17:30:00
11:30 PM,78.8,62.6,57,29.71,1.6,Calm,Calm,-,N/A,,Haze,0,2012-10-04 18:00:00